This is the latest recevied weather packets stored in our database for station/object KG5MMT-15. If no packets are shown the sender has not sent any weather packets the latest 10 day(s).
| Time | Temp. | Humidity | Pressure | Rain* | Wind** | Luminosity | Snow |
|---|---|---|---|---|---|---|---|
| 1777843341 | 20.56° C | 16% | 0 hPa | 0 mm | - | - | - |
| 1777843041 | 20.56° C | 17% | 0 hPa | 0 mm | - | - | - |
| 1777842741 | 20° C | 19% | 0 hPa | 0 mm | - | - | - |
| 1777842441 | 20° C | 18% | 0 hPa | 0 mm | - | - | - |
| 1777841841 | 20° C | 17% | 0 hPa | 0 mm | - | - | - |
| 1777841541 | 20° C | 19% | 0 hPa | 0 mm | - | - | - |
| 1777840641 | 18.89° C | 17% | 0 hPa | 0 mm | - | - | - |
| 1777840341 | 20° C | 17% | 0 hPa | 0 mm | - | - | - |
| 1777840041 | 20° C | 20% | 0 hPa | 0 mm | - | - | - |
| 1777839741 | 19.44° C | 19% | 0 hPa | 0 mm | - | - | - |
| 1777839441 | 20° C | 18% | 0 hPa | 0 mm | - | - | - |
| 1777838841 | 20.56° C | 18% | 0 hPa | 0 mm | - | - | - |
| 1777838241 | 20° C | 19% | 0 hPa | 0 mm | - | - | - |
| 1777837941 | 20° C | 19% | 0 hPa | 0 mm | - | - | - |
| 1777837041 | 20° C | 20% | 0 hPa | 0 mm | - | - | - |
| 1777836741 | 20.56° C | 20% | 0 hPa | 0 mm | - | - | - |
| 1777835541 | 18.89° C | 21% | 0 hPa | 0 mm | - | - | - |
| 1777835241 | 18.89° C | 22% | 0 hPa | 0 mm | - | - | - |
| 1777833441 | 18.33° C | 21% | 0 hPa | 0 mm | - | - | - |
| 1777833141 | 19.44° C | 19% | 0 hPa | 0 mm | - | - | - |
| 1777832841 | 18.89° C | 22% | 0 hPa | 0 mm | - | - | - |
| 1777832541 | 18.33° C | 21% | 0 hPa | 0 mm | - | - | - |
| 1777827141 | 16.67° C | 25% | 0 hPa | 0 mm | - | - | - |
| 1777826242 | 16.11° C | 19% | 0 hPa | 0 mm | - | - | - |
| 1777825942 | 16.11° C | 19% | 0 hPa | 0 mm | - | - | - |
* Rain latest hour (hover to see other rain measurements)
** Current wind speed in m/s (hover to see current wind gust speed)